Regional Weather Roundup
Issued by NWS Sterling, VA

Home | Current Version | Previous Version | Graphics & Text | Print | Product List | Glossary On
Versions: 1 2 3 4 5 6 7 8 9 10 11 12 13 14 15 16 17 18 19 20 21 22 23 24 25 26 27 28 29 30 31 32 33 34 35 36 37
000
ASUS41 KLWX 210910
RWRLWX

REGIONAL WEATHER ROUNDUP
NATIONAL WEATHER SERVICE BALTIMORE MD/WASHINGTON DC
500 AM EDT TUE OCT 21 2014

Note: "FAIR" indicates few or no clouds below 12,000 feet
with no significant weather and/or obstructions to visibility.
 TC=TEMPERATURE CELSIUS

 * =Non NWS site. Station does not report precipitation (e.g. rain,
    snow, etc.), thunder, or fog.

DCZ001-MDZ009-015-VAZ040>042-051-053>054-211000-
WASHINGTON METRO

CITY           SKY/WX    TMP DP  RH WIND       PRES   REMARKS
WASHINGTON NAT PTCLDY    56  48  74 SW3       29.88S
DULLES         PTCLDY    47  45  93 SE3       29.86F
ANDREWS AFB    MOCLDY    53  47  81 SW8       29.87S
FT BELVOIR     PTCLDY    50  48  93 CALM      29.87F FOG
QUANTICO       MOCLDY    56  47  71 SW5       29.88F
COLLEGE PARK*  MOCLDY    50  50 100 CALM      29.86F
LEESBURG*      PTCLDY    50  50 100 CALM      29.88R
MANASSAS*      CLOUDY    48  48 100 CALM      29.87S
GAITHERSBURG*  PTCLDY    48  45  87 SE3       29.90S

$$

MDZ006>007-011-014-211000-
BALTIMORE METRO

CITY           SKY/WX    TMP DP  RH WIND       PRES   REMARKS
BWI AIRPORT    MOCLDY    50  48  93 CALM      29.86F
MD SCIENCE CTR   N/A     55  48  77 MISG      29.86F
MARTIN STATE   LGT RAIN  54  54 100 CALM      29.88F
ANNAPOLIS      MOCLDY    57  48  72 CALM      29.86F
FORT MEADE*    MOCLDY    46  45  93 CALM      29.89S

$$

MDZ012-015-019>023-211000-
MARYLAND EASTERN SHORE

CITY           SKY/WX    TMP DP  RH WIND       PRES   REMARKS
OCEAN CITY     CLOUDY    60  55  83 W7        29.89F
SALISBURY      CLOUDY    58  53  84 SW3       29.89F
BAY BRIDGE AP*   N/A     59  48  67 SW5       29.87S
CAMBRIDGE*     MOCLDY    55  52  88 SE3       29.87F
EASTON*        MOCLDY    56  54  91 CALM      29.90F

$$

MDZ017>025-211000-
SOUTHERN MARYLAND

CITY           SKY/WX    TMP DP  RH WIND       PRES   REMARKS
PATUXENT RIVER CLOUDY    59  49  69 SW7       29.87F
ST INIGOES     CLOUDY    60  50  69 SW5       29.87F
LEONARDTOWN*   CLOUDY    59  46  63 SW5       29.89S

$$

MDZ003>005-211000-
NORTH CENTRAL MARYLAND

CITY           SKY/WX    TMP DP  RH WIND       PRES   REMARKS
FREDERICK*     FOG       50  46  87 CALM      29.89S VSB 1/4
HAGERSTOWN APT MOCLDY    51  47  86 S3        29.85F
WESTMINSTER*   CLOUDY    52  48  87 CALM      29.85F

$$

MDZ501>502-211000-
WESTERN MARYLAND

CITY           SKY/WX    TMP DP  RH WIND       PRES   REMARKS
OAKLAND*       CLOUDY    45 N/A N/A SW8       29.86S
CUMBERLAND*    CLOUDY    46  46 100 CALM      29.90S

$$

VAZ025>031-211000-
SHENANDOAH VALLEY

CITY           SKY/WX    TMP DP  RH WIND       PRES   REMARKS
WINCHESTER*    PTCLDY    50  45  81 S5        29.86S
FRONT ROYAL*   FAIR      48  46  93 CALM      29.85F
LURAY*         FAIR      52  50  93 SW5       29.87S
NEW MARKET*    FAIR      45  44  95 W3        29.87F
STAUNTON*      CLEAR     47  43  85 CALM      29.90S
WAYNESBORO*    FAIR      46  44  91 SW5       29.88F

$$

WVZ021-048>050-054>055-211000-
EASTERN WEST VIRGINIA PANHANDLE

CITY           SKY/WX    TMP DP  RH WIND       PRES   REMARKS
MARTINSBURG    FOG       47  44  90 CALM      29.86S VSB 1/4
PETERSBURG*    CLOUDY   N/A N/A N/A CALM      29.88S

$$

VAZ036>039-050-211000-
CENTRAL FOOTHILLS

CITY           SKY/WX    TMP DP  RH WIND       PRES   REMARKS
CHARLOTTESVILL MOCLDY    53  48  83 CALM      29.87F
CULPEPER*      PTCLDY    46  46 100 CALM      29.88S
ORANGE*        CLOUDY    52  50  93 CALM      29.89S
GORDONSVILLE*  CLOUDY    50  48  93 S3        29.87F
WARRENTON*     FAIR      45  45 100 CALM      29.86S

$$

VAZ055>057-211000-
NORTH AND CENTRAL PIEDMONT

CITY           SKY/WX    TMP DP  RH WIND       PRES   REMARKS
FREDERICKSBRG* CLOUDY    54  49  82 CALM      29.87S
STAFFORD*      MOCLDY    47  47 100 CALM      29.91F

$$

NCZ024-NYZ072-PAZ021-071-VAZ022-071-211000-
OTHER REGIONAL OBSERVATIONS

CITY           SKY/WX    TMP DP  RH WIND       PRES   REMARKS
NEW YORK CITY  MOCLDY    57  43  59 CALM      29.92F
PHILADELPHIA   CLOUDY    54  48  80 CALM      29.89F
PITTSBURGH     CLOUDY    50  49  96 W6        29.84S
ROANOKE        CLEAR     54  45  71 W6        29.93S
RICHMOND       CLOUDY    56  47  71 CALM      29.88F
RALEIGH        PTCLDY    55  50  83 CALM      29.92S

$$

ANZ530>537-211000-
MARINE OBSERVATIONS

STATION/POSITION TIME  TEMP    WIND        PRES
                       AIR SEA DIR/SP/G
                 (UTC) (F)     (DEG/KT/KT) (MB)
THOMAS PT LIGHT  0900   60 64  230/ 10/ 11 1012.3F
BALT KEY BRIDGE  0900   57     190/  2/  3 1011.1S
COVE POINT       0900   60     230/ 11/ 13 1011.3F
LEWISETTA        0900   59 62  220/  7/  9 1011.2F
SOLOMONS ISLAND  0900      65                N/A
PINEY POINT      0900          240/ 10/ 12   N/A

$$




USA.gov is the U.S. government's official web portal to all federal, state and local government web resources and services.